Regional Weather Roundup
Issued by NWS Mt. Holly, NJ

Home | Current Version | Previous Version | Text Only | Print | Product List | Glossary On
Versions: 1 2 3 4 5 6 7 8 9 10 11 12 13 14 15 16 17 18 19 20 21 22 23 24 25 26 27 28 29 30 31 32 33 34 35 36 37 38 39 40 41 42 43 44 45 46 47 48 49 50
000
ASUS41 KPHI 150212
RWRPHI

REGIONAL WEATHER ROUNDUP
NATIONAL WEATHER SERVICE MOUNT HOLLY NJ
900 PM EST THU DEC 14 2017

NOTE:  "FAIR" INDICATES FEW OR NO CLOUDS BELOW 12,000 FEET WITH NO
SIGNIFICANT WEATHER AND/OR OBSTRUCTIONS TO VISIBILITY.

 * = STATION DOES NOT REPORT PRECIPITATION (E.G. RAIN, SNOW, ETC.)
        OR FOG.

NJZ015>026-150300-
SOUTHERN NEW JERSEY

CITY           SKY/WX    TMP DP  RH WIND       PRES   REMARKS
POMONA         PTCLDY    24  16  71 NW3       30.08R
WILDWOOD*      MOCLDY    31  17  56 N6        30.09R WCI  25
MILLVILLE      CLOUDY    22  16  78 CALM      30.09R
WRIGHTSTOWN    PTCLDY    25  10  54 W3        30.05R
MOUNT HOLLY    PTCLDY    23  13  65 CALM      30.09R
TRENTON        PTCLDY    23  10  57 CALM      30.07R

$$
NJZ001>014-150300-
NORTHERN NEW JERSEY

CITY           SKY/WX    TMP DP  RH WIND       PRES   REMARKS
SUSSEX         CLEAR     15   6  67 CALM      30.03R
ANDOVER*         N/A     17   5  59 CALM      30.04R
MORRISTOWN     PTCLDY    23   5  46 CALM      30.07R
NEWARK         MOCLDY    25   4  40 NW10      30.08R WCI  15
TETERBORO      PTCLDY    24   7  48 NW10G18   30.07R WCI  14
CALDWELL       PTCLDY    22   4  46 W6        30.08R WCI  14
SOMERVILLE     CLEAR     15  11  83 CALM      30.07R
ALLAIRE*       CLEAR     23  10  57 NW6       30.08R WCI  16
TOMS RIVER*    PTCLDY    21  14  74 CALM      30.08R

$$
PAZ043-044-047-054-055-060>062-066>071-150300-
EASTERN PENNSYLVANIA

CITY           SKY/WX    TMP DP  RH WIND       PRES   REMARKS
PHILADELPHIA   MOCLDY    29   9  43 NW6       30.09R WCI  23
NORTH PHILA    CLOUDY    28   9  44 W3        30.09R
BLUE BELL*     CLOUDY    19  14  79 CALM      30.09R
DOYLESTOWN     CLOUDY    22   7  52 NW3       30.06R
QUAKERTOWN*    CLEAR     19   9  63 NW5       30.06R WCI  13
PERKASIE*      FAIR      18   7  62 NW3       30.06R
POTTSTOWN      CLEAR     18   9  68 CALM      30.08R
LANCASTER      PTCLDY    25  11  55 NW9       30.08R WCI  15
COATESVILLE    CLOUDY    25  10  54 NW9       30.07R WCI  15
READING        CLEAR     24  10  55 NW10      30.08R WCI  14
ALLENTOWN      PTCLDY    22   5  48 NW3       30.07R
MOUNT POCONO   CLEAR     12   2  64 W9        29.91R WCI   0
HAZLETON       CLEAR     18   1  49 W9G18     30.01R WCI   6
LEHIGHTON      FAIR      19   3  49 CALM      30.07R
WILKES BARRE   CLEAR     16   4  59 SW5       30.03R WCI   9

$$
DEZALL-MDZ008-012-015-019-020-150300-
DELAWARE AND EASTERN MARYLAND

CITY           SKY/WX    TMP DP  RH WIND       PRES   REMARKS
WILMINGTON     PTCLDY    27  12  53 NW6       30.09R WCI  20
DOVER          CLEAR     29  18  63 N6        30.09R WCI  23
GEORGETOWN     CLOUDY    31  16  54 N7        30.08S WCI  24
EASTON         CLEAR     32  16  51 N6        30.12R WCI  26
ABERDEEN       MOCLDY   N/A N/A N/A CALM      30.11R
PATUXENT       CLOUDY    35  18  49 N9        30.08R WCI  28
OCEAN CITY     PTCLDY    32  20  61 N7        30.07R WCI  26
WALLOPS ISLAND MOCLDY    32  20  61 N5        30.08R WCI  27
CAMBRIDGE      PTCLDY    34  18  51 N10       30.07R WCI  26
SALISBURY      CLOUDY    31  18  58 N5        30.07R WCI  26

$$
PAZ001-021-NYZ056-072-MDZ011-DCZ001-150300-
OTHER NEARBY LOCATIONS

CITY           SKY/WX    TMP DP  RH WIND       PRES   REMARKS
HARRISBURG     CLOUDY    26   8  46 NW8       30.09R WCI  18
STATE COLLEGE  MOCLDY    14   5  67 CALM      30.04R
WILLIAMSPORT   CLEAR     19   7  59 N3        30.07S
BINGHAMTON     CLEAR      9   0  67 W8        29.94S WCI  -3
NEW YORK CITY  PTCLDY    25   6  44 MISG      30.08R
BALTIMORE      MOCLDY    31  14  49 NW8       30.08R WCI  23
WASHINGTON DC  CLOUDY    34  15  46 N14       30.10R WCI  25

$$



USA.gov is the U.S. government's official web portal to all federal, state and local government web resources and services.